Wetbulb
55.85 58.30 59.94 59.90 59.93 60.40 61.01 62.08 61.56 61.41 60.87 60.86 61.25 60.51 60.69 60.89 60.76 60.51 60.78 61.15 61.25 61.48 61.40 61.55 62.13 61.74 62.93 62.26 62.57 62.41 62.11 61.98 62.04 58.48 57.18 57.46 58.30 63.25 65.91 65.74 65.56 63.83 67.18
55.06 57.26 58.76 58.76 59.18 59.85 61.56 60.97 60.45 59.71 60.00 59.93 59.81 60.61 60.13 60.41 60.23 59.93 60.35 60.63 60.41 60.42 60.69 61.35 60.84 61.21 61.59 62.01 61.97 61.11 61.80 61.96 59.92 57.81 55.32 54.58 55.34 63.08 64.30 64.25 64.51 63.96 65.42
53.45 55.75 57.04 57.82 59.35 58.98 59.72 59.56 59.24 60.19 59.25 60.00 59.83 59.62 59.48 59.66 60.03 59.58 59.53 60.04 60.08 60.27 60.25 60.11 59.88 60.85 61.57 61.51 61.32 61.82 61.59 60.07 58.57 56.29 53.59 51.70 52.75 60.45 62.14 62.25 62.31 62.80 63.62
53.74 55.47 56.72 58.12 58.58 58.98 59.36 59.37 59.36 58.93 58.98 58.63 58.48 58.08 57.97 58.77 59.49 59.65 59.07 59.64 59.99 59.99 60.35 60.72 61.47 61.65 61.42 60.79 60.41 60.59 60.91 58.37 56.97 53.55 50.17 50.11 52.30 57.99 60.85 61.40 61.37 61.70 62.24
53.53 55.12 56.79 58.46 58.73 58.83 58.60 58.24 58.25 58.12 57.84 57.72 58.06 57.58 58.71 59.46 58.58 58.56 58.38 59.69 59.00 60.08 59.93 60.04 60.12 60.39 60.01 58.92 59.26 59.58 60.15 57.31 53.86 50.43 49.28 49.94 52.59 56.79 60.79 60.57 60.14 60.81 61.19
52.81 54.57 57.75 58.09 57.82 57.68 57.38 57.61 57.17 56.80 56.50 58.50 58.47 58.68 57.46 58.12 57.74 57.92 58.74 58.70 59.85 59.17 58.96 58.24 58.99 58.96 57.67 57.07 57.68 58.15 58.23 56.57 50.91 49.08 49.00 49.71 52.30 59.13 60.27 60.02 59.94 60.29 60.72
50.84 51.17 53.41 57.57 57.21 57.00 56.61 56.31 55.98 56.25 57.43 56.86 56.58 56.60 56.41 57.14 57.03 57.46 57.72 58.38 57.89 57.19 57.41 57.07 57.67 56.93 56.33 56.02 56.27 56.69 55.90 53.70 48.81 48.65 48.92 50.66 53.23 58.27 60.11 60.51 60.41 60.26 60.60
48.32 48.94 50.95 54.86 56.11 55.57 55.24 55.31 55.52 55.85 56.07 55.62 55.32 55.00 55.02 55.40 55.66 56.66 57.15 57.01 56.10 56.08 56.18 56.25 56.06 55.87 55.05 55.18 55.57 55.29 53.79 52.47 47.81 48.08 48.82 51.25 55.63 58.09 58.63 58.82 59.21 59.51 59.60
46.63 47.22 47.62 49.14 52.08 53.74 54.97 54.21 55.09 55.06 54.31 53.98 54.14 53.35 52.66 52.89 54.24 55.42 55.37 55.84 55.09 55.21 55.32 55.19 54.86 54.64 53.57 53.61 54.14 53.80 51.97 50.75 47.70 47.77 47.83 50.59 55.93 58.02 58.57 58.41 58.54 58.93 59.41
45.87 46.11 46.45 46.97 47.37 48.02 50.86 53.76 53.88 53.66 52.65 52.11 52.44 51.31 50.28 50.36 52.27 53.66 53.12 53.93 53.93 53.80 54.04 53.67 53.78 53.11 51.99 51.96 52.31 52.21 50.33 48.00 47.35 47.49 47.94 51.83 55.24 57.05 58.22 58.65 59.15 58.71 58.55
44.81 45.43 45.72 46.16 46.79 47.44 49.40 50.98 51.27 51.76 51.08 49.54 47.93 48.76 46.42 47.23 48.58 49.26 51.36 51.75 52.54 51.71 51.79 51.28 51.48 50.82 49.63 48.68 49.95 50.32 47.73 46.58 46.58 47.05 48.11 53.71 54.86 56.19 56.43 57.28 57.16 58.27 59.28
43.68 44.46 45.36 45.60 45.94 46.72 46.95 46.41 46.30 46.59 46.05 45.48 44.70 44.86 45.87 45.59 48.01 47.56 48.34 49.33 49.58 49.57 48.96 49.06 49.07 47.88 46.20 45.29 45.28 46.04 45.59 45.71 45.83 46.48 48.06 53.19 54.70 56.13 56.57 56.91 56.93 57.63 57.93
44.32 44.69 44.78 45.35 45.56 46.09 46.14 46.04 45.99 45.82 46.13 45.40 44.38 44.82 44.88 45.25 45.55 45.92 46.42 45.81 45.44 46.37 44.79 44.85 44.52 44.58 44.32 44.36 44.33 44.36 44.74 45.29 46.06 46.66 47.12 51.76 53.78 55.04 55.38 55.22 55.90 56.75 57.05
43.26 44.62 44.94 45.12 45.21 45.78 46.57 45.76 45.55 45.10 45.23 45.01 44.82 44.40 45.10 45.07 45.09 44.92 45.38 45.45 45.00 44.85 44.47 44.27 43.95 44.08 44.09 44.13 43.98 43.67 44.25 44.94 44.63 45.24 46.03 50.34 51.97 52.96 54.20 54.80 54.92 54.93 55.00
42.79 43.89 44.51 44.93 44.89 45.11 44.91 44.93 44.35 45.41 45.16 44.74 44.48 44.52 45.14 44.92 44.59 44.91 44.65 45.21 44.88 44.56 44.14 44.22 43.93 43.81 43.87 43.78 44.09 43.52 43.39 44.27 43.65 44.25 45.31 47.71 50.10 51.41 52.55 53.16 53.66 54.08 54.43
43.21 43.69 44.41 44.48 45.11 44.70 44.64 44.52 44.21 44.27 44.48 44.28 44.19 44.48 43.74 44.65 44.63 44.67 44.33 44.10 44.29 44.18 44.23 44.16 43.42 43.29 43.40 43.67 43.48 43.43 43.10 43.82 43.65 43.90 44.45 45.25 47.52 48.71 50.29 51.27 52.40 53.23 53.56
43.10 43.99 43.49 44.51 44.91 44.41 44.58 44.45 43.98 44.01 44.18 44.18 44.07 43.60 43.78 44.29 44.45 44.18 44.23 44.19 43.97 44.10 43.73 44.26 43.81 43.86 43.56 43.66 43.06 43.01 43.10 43.31 43.35 43.37 44.06 44.61 44.94 45.67 47.79 49.54 50.80 51.88 52.62
42.86 42.72 43.66 44.78 44.70 44.40 44.11 44.14 44.20 43.93 44.24 44.25 44.06 44.01 43.43 43.82 44.03 44.39 44.39 44.42 44.00 44.16 43.86 43.60 43.27 43.09 43.25 43.41 43.12 42.90 43.38 43.30 42.57 43.05 43.71 44.05 44.44 44.81 44.87 47.42 49.42 50.50 51.34
42.80 42.89 42.84 44.02 44.67 44.29 43.93 43.64 43.58 43.22 43.52 43.96 43.77 43.79 43.60 43.64 43.79 44.54 44.49 44.64 44.01 44.08 43.60 42.86 43.20 42.50 42.53 42.80 42.44 42.86 42.98 43.35 42.57 42.78 43.09 43.42 44.03 44.46 44.65 45.55 47.20 47.46 49.82
42.14 42.30 42.93 43.45 44.38 44.13 43.55 42.58 42.56 42.30 42.59 43.08 43.26 43.59 43.48 43.89 43.51 43.95 44.25 44.34 44.24 43.93 43.62 42.99 42.26 42.96 42.41 41.95 40.92 41.57 42.51 42.78 43.11 42.78 42.71 43.04 43.77 44.33 44.80 44.71 45.10 45.38 47.73
41.12 41.03 41.67 42.15 43.37 42.71 41.47 41.19 41.13 41.49 41.99 42.13 42.81 43.51 43.47 43.66 43.52 43.32 43.92 44.06 44.19 43.39 42.56 42.13 42.18 41.61 42.15 42.39 41.72 41.77 41.60 41.28 41.75 42.65 43.11 42.73 43.15 43.68 44.34 44.59 44.57 44.80 45.24
41.11 40.87 41.38 41.80 42.97 42.32 42.38 42.03 42.49 42.06 42.05 42.97 43.30 43.18 43.49 43.42 43.56 43.42 43.29 43.46 43.41 43.28 43.03 42.29 41.63 41.48 42.21 42.07 40.11 39.14 37.57 39.84 40.71 41.83 42.22 42.07 42.48 43.54 43.64 43.94 44.14 44.17 44.77
39.70 40.37 40.97 41.85 42.47 42.55 42.37 41.55 40.41 40.95 41.10 41.32 41.69 42.37 42.81 43.19 43.54 43.59 43.23 43.20 43.11 42.94 42.70 42.34 41.94 40.99 40.57 42.08 41.11 39.72 36.69 35.30 37.11 41.02 40.54 41.42 41.89 42.61 43.54 43.91 43.84 43.98 44.28
40.17 41.13 41.36 41.91 41.98 42.38 42.23 41.61 41.10 41.48 40.74 41.74 42.48 43.05 43.41 43.38 43.42 43.43 43.26 42.96 42.82 42.93 42.44 42.62 42.74 42.14 41.18 40.05 41.65 40.30 40.35 39.33 35.97 34.99 39.97 40.70 41.49 41.40 42.73 43.62 43.56 43.70 43.57
41.22 40.29 40.95 41.49 41.64 42.58 41.78 42.04 41.56 40.93 41.59 42.01 41.46 41.55 42.35 42.98 42.95 43.03 43.21 42.89 42.38 42.55 42.78 42.29 42.02 41.50 41.40 40.43 40.60 40.62 39.38 39.25 38.72 36.16 34.26 37.14 40.07 41.87 42.70 43.57 43.47 43.15 43.17
40.47 40.74 40.84 40.16 41.16 42.06 41.80 41.32 41.22 41.08 41.13 40.02 40.31 40.40 41.61 42.42 42.85 42.77 42.84 42.80 42.89 42.40 42.24 42.53 42.15 41.58 41.40 40.81 40.85 40.38 39.35 38.85 38.46 37.05 35.85 36.75 36.60 39.63 41.81 43.26 43.12 43.00 43.05
MSLP
1028.96 1028.70 1028.46 1028.39 1028.20 1028.08 1027.86 1027.79 1027.77 1027.67 1027.67 1027.78 1027.81 1027.59 1027.44 1027.26 1027.10 1027.02 1026.83 1026.63 1026.47 1026.36 1026.09 1025.82 1025.61 1025.05 1025.02 1024.69 1024.42 1024.27 1024.13 1023.80 1023.99 1024.38 1024.20 1023.82 1023.37 1022.59 1021.93 1021.72 1021.40 1021.15 1021.03
1029.04 1028.85 1028.66 1028.60 1028.40 1028.18 1028.02 1028.12 1028.18 1028.19 1028.14 1028.17 1027.94 1027.86 1027.77 1027.60 1027.55 1027.33 1027.11 1026.91 1026.59 1026.42 1026.19 1026.05 1025.75 1025.32 1025.36 1025.05 1024.75 1024.50 1024.33 1024.35 1024.55 1024.71 1024.47 1024.08 1023.63 1022.72 1022.16 1021.88 1021.68 1021.56 1021.42
1029.22 1029.22 1029.10 1028.87 1028.65 1028.55 1028.43 1028.54 1028.53 1028.53 1028.56 1028.44 1028.36 1028.29 1028.16 1027.91 1027.75 1027.68 1027.53 1027.14 1026.86 1026.58 1026.26 1026.09 1025.78 1025.68 1025.51 1025.37 1025.21 1024.94 1024.78 1024.63 1024.94 1025.07 1024.88 1024.43 1024.09 1023.55 1022.73 1022.43 1022.31 1022.15 1021.86
1029.38 1029.39 1029.27 1029.01 1028.88 1028.66 1028.71 1028.78 1028.86 1028.86 1028.80 1028.78 1028.65 1028.60 1028.42 1028.13 1027.95 1027.78 1027.70 1027.23 1026.92 1026.71 1026.56 1026.35 1026.32 1026.14 1025.90 1025.85 1025.60 1025.28 1024.98 1025.35 1025.23 1025.43 1025.11 1024.90 1024.40 1023.93 1023.06 1022.79 1022.67 1022.37 1022.06
1029.51 1029.54 1029.28 1029.09 1029.08 1029.02 1029.07 1029.18 1029.20 1029.19 1029.18 1028.94 1028.74 1028.65 1028.44 1028.25 1028.27 1028.08 1027.86 1027.40 1027.25 1027.21 1026.99 1026.92 1026.74 1026.55 1026.31 1026.21 1026.05 1025.59 1025.44 1025.84 1025.95 1025.76 1025.55 1025.27 1024.70 1024.05 1023.17 1022.94 1022.78 1022.56 1022.33
1029.72 1029.65 1029.27 1029.32 1029.39 1029.41 1029.46 1029.43 1029.51 1029.50 1029.43 1029.11 1029.04 1028.92 1028.93 1028.64 1028.51 1028.33 1027.95 1027.77 1027.72 1027.58 1027.47 1027.32 1027.12 1026.89 1026.83 1026.64 1026.33 1026.04 1025.88 1026.07 1026.37 1026.09 1025.86 1025.48 1024.99 1023.93 1023.23 1022.94 1022.79 1022.68 1022.41
1029.94 1029.88 1029.71 1029.51 1029.60 1029.63 1029.60 1029.67 1029.67 1029.60 1029.56 1029.59 1029.54 1029.40 1029.26 1029.02 1028.86 1028.60 1028.23 1028.06 1028.13 1028.04 1027.79 1027.72 1027.40 1027.24 1027.25 1027.01 1026.64 1026.49 1026.36 1026.64 1026.67 1026.36 1026.08 1025.68 1025.23 1024.10 1023.43 1022.98 1022.79 1022.67 1022.44
1030.00 1030.14 1030.09 1029.81 1029.71 1029.76 1029.80 1029.78 1029.70 1029.75 1029.88 1029.90 1029.90 1029.86 1029.77 1029.50 1029.29 1028.98 1028.71 1028.57 1028.74 1028.42 1028.13 1028.01 1027.90 1027.68 1027.82 1027.47 1027.06 1026.91 1027.03 1026.92 1026.87 1026.54 1026.23 1025.80 1025.19 1024.17 1023.64 1023.31 1023.10 1022.86 1022.69
1030.21 1030.31 1030.39 1030.35 1030.25 1030.19 1029.87 1029.89 1029.89 1029.94 1030.17 1030.24 1030.25 1030.27 1030.28 1030.07 1029.78 1029.44 1029.42 1029.08 1029.13 1028.80 1028.53 1028.40 1028.26 1028.10 1028.23 1028.02 1027.61 1027.41 1027.49 1027.37 1027.11 1026.89 1026.37 1025.81 1025.10 1024.34 1023.72 1023.37 1023.09 1022.87 1022.68
1030.35 1030.49 1030.59 1030.66 1030.62 1030.66 1030.42 1029.98 1030.10 1030.25 1030.42 1030.62 1030.59 1030.77 1030.78 1030.67 1030.41 1030.01 1029.93 1029.61 1029.45 1029.37 1029.03 1028.84 1028.69 1028.62 1028.60 1028.45 1028.09 1027.82 1027.86 1027.80 1027.47 1027.06 1026.64 1026.12 1025.32 1024.63 1023.99 1023.69 1023.54 1023.14 1022.81
1030.54 1030.58 1030.67 1030.71 1030.90 1030.84 1030.78 1030.61 1030.70 1030.67 1030.83 1031.04 1031.15 1031.19 1031.29 1031.08 1030.84 1030.59 1030.41 1030.18 1029.85 1029.93 1029.67 1029.44 1029.17 1029.14 1029.04 1028.88 1028.56 1028.22 1028.10 1027.86 1027.55 1027.24 1026.84 1025.99 1025.36 1024.68 1024.29 1023.84 1023.46 1023.27 1023.17
1030.41 1030.62 1030.66 1030.70 1030.75 1030.88 1030.83 1031.05 1031.09 1031.14 1031.28 1031.37 1031.34 1031.39 1031.34 1031.27 1030.96 1031.04 1030.92 1030.60 1030.41 1030.36 1030.08 1029.91 1029.68 1029.58 1029.44 1029.17 1028.89 1028.59 1028.24 1028.03 1027.71 1027.43 1027.06 1026.16 1025.48 1024.84 1024.25 1024.10 1023.91 1023.53 1023.27
1030.10 1030.41 1030.60 1030.67 1030.78 1030.75 1030.83 1031.08 1031.25 1031.40 1031.47 1031.49 1031.41 1031.64 1031.44 1031.37 1031.30 1031.27 1031.08 1030.91 1030.75 1030.65 1030.24 1030.04 1029.84 1029.64 1029.52 1029.29 1029.01 1028.67 1028.39 1028.06 1027.79 1027.50 1027.30 1026.68 1025.91 1025.25 1024.74 1024.35 1023.95 1023.78 1023.59
1029.80 1030.05 1030.41 1030.63 1030.69 1030.74 1030.84 1030.95 1031.19 1031.28 1031.45 1031.34 1031.59 1031.47 1031.44 1031.42 1031.46 1031.38 1031.17 1031.16 1031.03 1030.98 1030.40 1030.31 1030.07 1029.79 1029.53 1029.30 1029.13 1028.80 1028.55 1028.24 1027.92 1027.68 1027.37 1026.89 1026.29 1025.87 1025.29 1024.69 1024.44 1024.13 1023.75
1029.46 1029.78 1030.12 1030.49 1030.55 1030.63 1030.82 1030.99 1031.08 1031.20 1031.28 1031.38 1031.43 1031.69 1031.62 1031.55 1031.33 1031.41 1031.33 1031.41 1031.23 1030.94 1030.69 1030.49 1030.20 1029.77 1029.49 1029.20 1028.86 1028.74 1028.49 1028.30 1028.14 1027.94 1027.68 1027.41 1026.74 1026.22 1025.69 1025.34 1024.91 1024.36 1023.85
1029.18 1029.46 1029.86 1030.21 1030.38 1030.61 1030.71 1030.90 1030.97 1031.15 1031.31 1031.48 1031.54 1031.58 1031.63 1031.47 1031.52 1031.34 1031.33 1031.35 1031.15 1031.03 1030.85 1030.77 1030.47 1030.07 1029.62 1029.14 1028.73 1028.63 1028.47 1028.23 1028.05 1027.86 1027.67 1027.47 1027.17 1026.74 1026.19 1025.63 1025.03 1024.43 1023.92
1028.79 1029.19 1029.64 1029.98 1030.29 1030.48 1030.57 1030.76 1030.99 1031.16 1031.30 1031.36 1031.47 1031.47 1031.55 1031.48 1031.48 1031.38 1031.45 1031.27 1031.16 1031.16 1031.00 1030.72 1030.32 1030.07 1029.64 1029.27 1028.88 1028.74 1028.49 1028.31 1028.19 1027.90 1027.66 1027.48 1027.25 1026.88 1026.51 1025.90 1025.20 1024.65 1024.17
1028.60 1028.88 1029.29 1029.57 1029.90 1030.26 1030.46 1030.61 1030.76 1030.98 1031.24 1031.30 1031.35 1031.49 1031.43 1031.50 1031.48 1031.51 1031.36 1031.25 1031.28 1031.09 1031.02 1030.63 1030.36 1029.99 1029.61 1029.04 1028.67 1028.69 1028.70 1028.54 1028.30 1028.01 1027.77 1027.56 1027.22 1026.77 1026.51 1026.13 1025.42 1024.88 1024.30
1028.06 1028.54 1028.96 1029.29 1029.41 1029.81 1030.26 1030.54 1030.69 1030.93 1031.08 1031.17 1031.31 1031.34 1031.38 1031.39 1031.43 1031.44 1031.35 1031.34 1031.35 1031.03 1030.89 1030.77 1030.34 1030.26 1029.69 1029.20 1028.80 1028.56 1028.65 1028.57 1028.45 1028.14 1027.86 1027.55 1027.18 1026.79 1026.35 1025.92 1025.53 1025.11 1024.41
1027.78 1028.24 1028.62 1028.90 1029.10 1029.53 1030.05 1030.48 1030.71 1030.83 1030.93 1031.11 1031.13 1031.13 1031.20 1031.21 1031.24 1031.32 1031.36 1031.33 1031.24 1031.02 1030.86 1030.70 1030.56 1030.22 1030.00 1029.50 1028.94 1028.60 1028.58 1028.59 1028.34 1027.98 1027.85 1027.58 1027.12 1026.66 1026.27 1025.84 1025.41 1024.87 1024.50
1027.55 1027.94 1028.12 1028.46 1028.60 1029.26 1029.85 1030.11 1030.33 1030.25 1030.43 1030.68 1030.76 1030.75 1030.85 1030.96 1031.05 1031.18 1031.11 1031.07 1031.08 1030.95 1030.92 1030.88 1030.59 1030.21 1029.73 1029.54 1028.68 1028.30 1028.48 1028.48 1028.30 1027.62 1027.69 1027.51 1027.01 1026.55 1026.08 1025.58 1025.21 1024.82 1024.37
1026.43 1027.03 1027.56 1027.83 1028.11 1028.56 1029.00 1029.35 1029.52 1029.68 1029.89 1029.96 1030.15 1030.23 1030.35 1030.52 1030.67 1030.71 1030.74 1030.78 1030.88 1030.84 1030.74 1030.68 1030.60 1030.31 1030.05 1029.88 1029.65 1029.35 1028.40 1028.14 1028.16 1027.64 1027.46 1027.28 1026.81 1026.35 1025.83 1025.37 1024.94 1024.58 1024.25
1025.62 1026.04 1026.55 1026.98 1027.45 1027.90 1028.47 1029.08 1029.64 1029.92 1030.15 1030.00 1029.94 1029.85 1029.83 1030.04 1030.22 1030.31 1030.43 1030.51 1030.59 1030.68 1030.54 1030.62 1030.61 1030.51 1030.15 1029.99 1030.08 1030.09 1029.41 1028.91 1028.35 1027.60 1027.34 1027.15 1026.82 1026.24 1025.63 1025.16 1024.75 1024.48 1024.17
1024.33 1025.22 1025.62 1026.06 1026.60 1027.12 1027.90 1028.38 1028.66 1028.78 1029.02 1029.03 1029.11 1029.17 1029.34 1029.62 1029.75 1029.93 1030.08 1030.14 1030.21 1030.28 1030.25 1030.16 1030.17 1030.32 1030.36 1029.90 1029.96 1030.06 1030.03 1029.82 1029.14 1027.78 1027.06 1026.86 1026.68 1026.22 1025.65 1025.12 1024.71 1024.30 1023.92
1023.85 1024.22 1024.60 1025.22 1025.68 1026.16 1026.83 1027.37 1027.84 1028.12 1028.34 1028.53 1028.72 1028.85 1029.01 1029.17 1029.35 1029.46 1029.64 1029.74 1029.90 1029.97 1029.85 1029.87 1029.81 1029.92 1030.05 1029.94 1029.77 1029.66 1029.67 1029.55 1029.35 1029.06 1027.38 1026.32 1026.34 1025.93 1025.51 1025.00 1024.50 1024.09 1023.78
1022.87 1023.31 1023.70 1024.18 1024.50 1025.06 1025.63 1026.21 1026.70 1027.04 1027.47 1027.96 1028.17 1028.30 1028.46 1028.57 1028.72 1028.94 1029.11 1029.26 1029.36 1029.46 1029.49 1029.51 1029.57 1029.59 1029.55 1029.61 1029.62 1029.54 1029.40 1029.22 1028.80 1028.77 1028.02 1026.89 1026.24 1025.42 1025.24 1024.92 1024.40 1023.88 1023.63
Wind_Speed
4 5 7 8 7 9 9 11 11 13 12 11 12 11 14 14 14 14 13 15 15 15 14 15 17 16 17 17 17 17 16 16 20 21 20 19 19 18 17 17 18 15 19
4 6 7 7 5 6 9 10 11 9 11 10 11 13 12 13 13 14 15 15 15 14 15 16 14 16 15 16 17 15 16 17 18 19 20 17 19 19 18 18 20 17 19
6 5 4 4 6 5 7 9 8 11 10 12 12 12 12 12 13 12 14 14 14 15 15 14 15 15 16 16 15 17 15 16 18 19 17 11 11 16 13 12 13 15 16
5 4 1 4 5 6 9 10 11 10 10 11 11 11 10 11 13 14 13 13 14 15 16 17 18 17 17 16 17 16 16 18 18 17 10 11 11 13 11 11 12 14 15
5 2 1 6 7 8 8 9 9 9 10 9 9 8 11 13 13 13 12 14 15 16 17 17 17 17 17 17 16 15 15 18 18 13 11 10 9 12 12 11 11 12 13
4 2 5 8 7 7 7 8 8 8 7 12 12 14 12 13 12 12 14 14 17 16 17 15 16 16 17 16 16 15 16 20 15 11 10 11 11 14 12 10 10 11 12
4 4 3 7 7 7 6 7 6 6 10 10 11 12 12 13 13 14 12 15 17 17 16 15 16 16 17 15 15 15 17 15 12 10 9 9 10 14 15 13 12 13 13
6 5 6 5 6 6 5 5 5 7 9 10 11 12 12 13 13 13 16 16 17 15 15 15 14 16 16 15 16 16 15 14 10 9 10 9 15 14 12 12 13 13 13
5 5 5 5 7 7 6 5 7 7 9 10 11 12 12 12 12 14 15 16 16 14 14 14 14 15 15 15 15 15 14 14 8 7 9 7 16 16 13 12 12 14 15
5 5 4 4 4 4 4 5 7 7 8 9 11 12 11 11 11 13 13 15 15 15 16 14 14 14 14 15 14 15 13 10 8 8 6 7 15 15 15 14 14 14 14
4 4 3 4 3 3 4 6 7 7 8 9 9 10 7 5 6 8 11 14 15 15 16 15 13 13 13 13 15 15 11 6 8 7 5 14 13 13 12 14 13 15 14
6 5 4 4 4 3 3 4 5 5 4 4 5 5 4 5 6 6 8 12 13 14 15 15 14 12 10 7 6 9 6 7 6 5 5 16 14 14 13 14 13 14 14
7 5 6 5 4 5 4 3 2 2 2 3 5 3 4 4 4 3 3 4 5 9 6 9 8 7 9 7 7 7 7 7 5 4 7 15 16 15 14 14 16 17 17
9 8 6 6 5 5 3 3 3 3 2 3 2 3 3 2 2 3 3 3 4 4 6 6 5 7 9 9 8 8 7 5 5 4 7 14 14 14 15 15 16 18 17
9 9 8 7 6 5 5 3 3 3 3 3 2 2 2 1 2 2 2 2 3 4 5 5 6 7 8 9 8 7 7 6 8 4 4 13 14 14 15 15 16 17 18
10 10 9 9 7 6 5 5 4 3 3 3 3 2 3 1 1 1 2 3 3 3 4 4 5 6 6 7 8 7 7 7 8 8 5 6 14 14 15 15 16 17 18
10 9 10 10 8 8 6 5 4 4 4 3 3 4 3 2 1 1 1 2 3 3 5 4 5 5 5 6 7 6 4 7 6 9 8 6 8 11 14 15 15 16 17
10 11 10 9 9 8 7 5 4 4 4 3 3 3 4 3 2 1 0 2 3 3 4 4 4 5 6 7 6 4 2 3 8 8 8 8 8 7 8 14 15 15 16
12 11 11 10 11 10 7 4 4 5 4 4 4 4 5 4 3 2 1 1 2 3 3 4 5 5 6 7 7 4 1 2 4 6 8 10 10 9 7 12 14 13 15
11 10 10 10 11 9 5 4 3 3 4 4 5 5 5 4 5 3 2 2 1 3 3 4 5 5 5 7 5 3 0 2 3 5 6 7 10 10 9 9 8 9 15
9 11 13 12 12 8 5 4 4 4 4 5 6 7 6 5 5 5 3 3 1 3 3 4 4 5 4 8 5 3 1 3 2 5 3 6 10 10 10 9 7 7 8
15 14 14 14 12 11 7 4 3 3 3 3 5 7 7 7 7 5 4 4 3 3 3 4 4 3 2 6 5 3 5 1 2 3 4 6 10 9 10 11 10 11 9
16 16 15 16 14 12 12 5 3 2 1 3 4 5 7 8 8 6 6 5 4 4 3 3 3 3 3 3 4 3 3 3 10 2 5 6 9 10 10 10 12 12 11
18 13 15 15 16 13 13 10 10 7 7 5 5 4 5 8 8 7 7 7 6 4 5 4 3 3 2 4 2 3 4 4 3 7 3 7 8 10 12 9 10 10 12
13 15 15 15 15 14 14 14 10 11 7 5 4 6 7 6 7 7 7 7 7 5 6 5 5 5 4 4 3 3 3 4 6 6 10 10 9 8 8 9 10 9 10
12 13 13 16 16 15 15 15 15 15 11 7 7 6 6 5 5 8 7 7 7 6 7 6 5 6 5 5 5 5 5 4 5 4 6 11 12 9 10 9 9 9 9
Wind_Direction
48 16 43 24 19 34 30 41 32 34 33 34 35 28 31 31 27 29 25 25 22 24 23 17 13 16 14 10 13 11 15 9 28 19 9 4 2 356 7 9 8 13 10
83 31 43 29 31 38 46 50 40 33 36 37 35 30 29 31 28 22 23 17 17 18 13 19 10 15 16 9 13 12 13 35 23 15 8 5 2 0 6 11 11 9 4
76 53 24 56 58 51 54 47 41 41 35 27 30 33 27 26 31 23 21 15 12 16 12 17 12 16 17 21 16 18 31 21 20 11 5 5 2 356 10 14 7 6 2
92 72 8 96 78 64 57 41 34 37 38 35 33 33 23 23 21 22 18 15 15 14 12 17 17 22 23 23 16 8 22 28 20 13 5 0 353 352 7 19 11 7 2
98 87 152 94 67 54 55 46 43 40 39 23 34 32 23 22 20 21 8 19 16 23 18 18 17 20 18 22 11 13 20 34 13 16 1 358 350 337 358 13 9 4 0
119 63 107 97 86 69 59 56 51 45 39 28 22 23 19 24 21 21 13 22 29 21 23 20 17 22 23 14 12 10 11 24 13 13 0 354 346 331 352 3 3 359 358
124 64 29 99 81 87 76 71 63 41 37 26 27 29 22 26 22 24 18 28 26 10 18 16 15 19 21 13 14 16 24 23 12 5 2 352 345 353 349 352 358 354 351
130 86 51 74 102 81 74 73 61 48 39 30 32 32 28 29 23 26 24 29 25 19 23 25 24 22 19 17 19 22 21 17 10 2 355 346 335 348 351 350 343 345 345
108 97 67 52 45 47 47 73 59 54 42 35 39 35 32 24 27 40 26 31 28 27 29 21 22 18 20 11 12 19 22 15 10 2 349 347 347 341 343 344 341 347 345
114 104 80 65 76 54 34 79 69 63 56 44 41 39 40 33 35 34 36 27 35 26 23 17 15 18 16 7 8 13 19 16 8 -0 358 335 342 338 336 351 349 336 336
138 128 121 114 103 81 73 71 58 60 66 59 46 44 40 34 33 30 26 28 31 30 24 20 19 18 17 7 5 6 13 12 6 5 359 348 348 342 341 334 335 340 343
180 179 170 158 149 136 116 93 85 82 79 74 64 51 45 37 31 30 22 27 21 24 23 26 25 24 17 9 3 6 8 3 8 7 2 358 350 346 346 353 343 335 345
185 186 185 174 178 166 144 132 110 105 119 92 75 74 58 39 28 25 13 15 12 6 13 13 17 26 20 20 15 11 8 11 7 4 -0 356 350 355 351 347 348 345 343
188 187 189 189 184 172 155 161 150 160 151 123 113 87 63 60 39 33 18 7 359 356 359 3 5 5 7 13 16 16 21 31 14 5 360 354 357 353 342 346 345 338 330
193 190 196 192 192 177 183 169 164 166 165 138 121 126 120 86 63 18 24 2 350 353 354 348 352 356 357 359 6 7 18 22 18 19 7 3 0 353 351 345 333 328 323
201 198 192 203 196 186 192 185 175 169 162 175 160 149 144 122 112 46 22 3 3 355 348 333 343 347 350 352 358 3 14 18 26 27 21 13 6 358 345 341 336 332 330
206 199 197 201 197 199 198 189 178 184 182 182 180 168 177 161 154 64 2 357 359 350 345 347 350 348 349 352 357 1 15 24 22 23 24 16 3 360 353 344 338 336 332
203 201 198 200 197 202 203 191 188 180 191 195 188 192 193 194 182 178 327 344 351 350 344 353 1 352 355 354 354 8 1 40 27 20 12 9 2 1 349 348 344 340 332
205 200 202 203 203 202 204 202 195 191 205 201 203 208 204 202 200 215 277 341 335 355 4 354 353 354 347 352 340 354 34 250 2 10 9 5 2 355 348 346 348 346 339
205 204 205 204 206 201 192 196 203 209 215 214 216 217 207 211 206 210 234 255 322 336 353 1 342 343 327 346 320 335 356 290 282 342 350 356 359 353 349 345 342 341 336
205 206 208 205 206 185 185 194 213 220 208 218 217 220 215 214 211 215 222 245 276 311 339 335 333 343 350 348 330 357 266 285 273 353 329 347 355 353 346 345 341 339 336
207 208 209 213 204 200 198 190 185 185 203 216 212 215 218 217 217 219 221 240 240 275 312 339 357 339 327 13 2 329 341 254 260 323 321 342 346 345 341 343 337 339 334
212 208 209 211 210 205 203 178 157 146 176 199 216 223 221 217 220 220 221 232 233 244 277 287 283 317 338 348 6 316 316 319 329 260 302 325 335 338 342 336 332 335 330
216 208 209 207 209 208 199 204 205 210 212 211 215 217 222 218 222 222 229 232 237 235 247 265 262 280 252 305 313 209 256 278 301 312 285 332 329 328 331 328 331 332 335
210 207 207 206 207 207 198 206 207 220 227 218 211 223 226 223 225 221 228 231 237 235 247 254 260 250 253 277 262 282 261 260 248 257 302 321 318 329 317 320 325 332 337
207 207 203 204 212 205 201 202 207 214 214 213 218 220 223 223 222 226 227 227 234 236 239 248 252 251 254 254 262 256 255 278 289 272 280 310 315 325 320 319 322 336 337